Date String (YYYY-MM-DD hh:mm:ss) UTC,Instrument flags,absolute air pressure of the measurement (hPa),sample flow rate (lpm),inlet stack bypass flow (lpm),air temperature of the measurement (°C),ambient temperature measured by the external sensor (°C),aerosol sample conditioner tube jacket temperature (°C),OPC LED temperature (°C),internal box temperature (°C),relative humidity of the measurement (%),span deviation,mass concentration of particles derived from Lorenz-Mie calculation of OPC scattering (μg/m³),mass concentration of particles derived from Lorenz-Mie calculation of OPC scattering (μg/m³),mass concentration of particles derived from Lorenz-Mie calculation of OPC scattering (μg/m³)
DateTimeUTC,F1_M11,P_M11,Q1_M11,Q2_M11,T1_M11,T2_M11,T3_M11,T4_M11,T5_M11,U1_M11,ZSPAN_M11,X0_M11,X2_M11,X1_M11
2023-07-13 03:00:00,SystemResetWarning,0830.7,5.00,000.00,028.9,027.0,000.0,037.2,030.5,27.8,0000.0,0023.86,0006.84,0005.43
2023-07-13 03:01:00,SystemResetWarning,0830.7,5.00,000.00,028.9,027.3,000.0,037.3,030.6,27.9,0000.0,0025.18,0006.82,0005.40
2023-07-13 03:02:00,SystemResetWarning,0830.7,5.00,000.00,029.0,027.6,000.0,037.3,030.7,28.0,0000.0,0024.31,0006.79,0005.39
2023-07-13 03:03:00,SystemResetWarning,0830.8,5.00,000.00,029.0,027.7,000.0,037.3,030.8,28.2,0000.0,0024.65,0006.84,0005.37
2023-07-13 03:04:00,SystemResetWarning,0830.8,4.98,000.00,029.0,026.3,000.0,037.2,030.6,28.6,0000.0,0023.99,0006.83,0005.33
2023-07-13 03:05:00,SystemResetWarning,0830.8,5.01,000.00,028.9,024.7,000.0,037.1,030.3,29.1,0000.0,0024.28,0006.79,0005.25
2023-07-13 03:06:00,SystemResetWarning,0830.8,5.01,000.00,028.8,024.5,000.0,037.0,030.2,29.2,0000.0,0022.98,0006.68,0005.16
2023-07-13 03:07:00,SystemResetWarning,0830.9,5.00,000.00,028.7,024.9,000.0,037.1,030.0,29.2,0000.0,0021.69,0006.47,0005.06
2023-07-13 03:08:00,SystemResetWarning,0830.9,4.99,000.00,028.7,025.4,000.0,037.1,030.1,28.7,0000.0,0020.99,0006.30,0004.95
2023-07-13 03:09:00,SystemResetWarning,0830.9,5.00,000.00,028.7,025.9,000.0,037.2,030.2,28.5,0000.0,0019.07,0006.16,0004.85
2023-07-13 03:10:00,SystemResetWarning,0831.0,5.01,000.00,028.7,026.3,000.0,037.2,030.3,28.5,0000.0,0017.75,0005.98,0004.75
2023-07-13 03:11:00,SystemResetWarning,0831.1,5.00,000.00,028.8,026.7,000.0,037.2,030.4,27.7,0000.0,0017.45,0005.88,0004.66
2023-07-13 03:12:00,SystemResetWarning,0831.2,5.00,000.00,028.8,027.1,000.0,037.2,030.5,27.5,0000.0,0014.91,0005.78,0004.58
2023-07-13 03:13:00,SystemResetWarning,0831.1,5.00,000.00,028.9,027.4,000.0,037.2,030.6,27.9,0000.0,0013.70,0005.69,0004.51
2023-07-13 03:14:00,SystemResetWarning,0831.1,5.00,000.00,028.9,027.6,000.0,037.3,030.7,27.9,0000.0,0013.08,0005.58,0004.44
2023-07-13 03:15:00,SystemResetWarning,0831.2,4.99,000.00,029.0,027.8,000.0,037.3,030.7,27.9,0000.0,0013.67,0005.44,0004.37
2023-07-13 03:16:00,SystemResetWarning,0831.3,4.99,000.00,029.0,026.8,000.0,037.2,030.7,27.8,0000.0,0013.38,0005.32,0004.32
2023-07-13 03:17:00,SystemResetWarning,0831.2,5.01,000.00,028.9,025.5,000.0,037.1,030.5,27.6,0000.0,0013.28,0005.31,0004.29
2023-07-13 03:18:00,SystemResetWarning,0831.2,5.01,000.00,028.9,025.5,000.0,037.1,030.3,27.2,0000.0,0014.05,0005.30,0004.27
2023-07-13 03:19:00,SystemResetWarning,0831.3,5.00,000.00,028.8,025.8,000.0,037.1,030.2,27.3,0000.0,0014.11,0005.30,0004.26
2023-07-13 03:20:00,SystemResetWarning,0831.3,5.00,000.00,028.8,026.2,000.0,037.2,030.3,27.5,0000.0,0013.72,0005.26,0004.25
2023-07-13 03:21:00,SystemResetWarning,0831.3,4.99,000.00,028.8,026.6,000.0,037.2,030.4,27.6,0000.0,0013.71,0005.22,0004.25
2023-07-13 03:22:00,SystemResetWarning,0831.3,5.00,000.00,028.9,027.0,000.0,037.3,030.5,27.5,0000.0,0013.70,0005.23,0004.25
2023-07-13 03:23:00,SystemResetWarning,0831.3,5.01,000.00,028.9,027.3,000.0,037.3,030.6,27.4,0000.0,0013.67,0005.21,0004.23
2023-07-13 03:24:00,SystemResetWarning,0831.3,5.00,000.00,029.0,027.5,000.0,037.3,030.7,27.3,0000.0,0014.26,0005.14,0004.20
2023-07-13 03:25:00,SystemResetWarning,0831.3,4.99,000.00,029.0,027.5,000.0,037.3,030.7,26.6,0000.0,0014.40,0005.06,0004.17
2023-07-13 03:26:00,SystemResetWarning,0831.3,4.99,000.00,029.0,026.0,000.0,037.2,030.5,25.9,0000.0,0013.61,0005.03,0004.14
2023-07-13 03:27:00,SystemResetWarning,0831.4,5.01,000.00,028.9,024.7,000.0,037.1,030.3,25.8,0000.0,0012.49,0005.02,0004.13
2023-07-13 03:28:00,SystemResetWarning,0831.3,5.01,000.00,028.8,024.6,000.0,037.1,030.1,25.6,0000.0,0011.80,0004.92,0004.12
2023-07-13 03:29:00,SystemResetWarning,0831.3,5.00,000.00,028.7,024.9,000.0,037.1,030.0,25.4,0000.0,0010.94,0004.88,0004.12
2023-07-13 03:30:00,SystemResetWarning,0831.3,5.00,000.00,028.7,025.5,000.0,037.1,030.1,25.6,0000.0,0010.98,0004.83,0004.09
2023-07-13 03:31:00,SystemResetWarning,0831.3,5.01,000.00,028.7,025.9,000.0,037.1,030.2,25.4,0000.0,0012.01,0004.77,0004.05
2023-07-13 03:32:00,SystemResetWarning,0831.4,5.00,000.00,028.7,026.4,000.0,037.2,030.3,25.1,0000.0,0012.04,0004.70,0003.98
2023-07-13 03:33:00,SystemResetWarning,0831.3,5.00,000.00,028.8,026.8,000.0,037.2,030.4,25.1,0000.0,0011.98,0004.57,0003.88
2023-07-13 03:34:00,SystemResetWarning,0831.4,5.00,000.00,028.8,027.1,000.0,037.2,030.5,25.3,0000.0,0011.94,0004.45,0003.78
2023-07-13 03:35:00,SystemResetWarning,0831.3,4.98,000.00,028.8,027.4,000.0,037.2,030.6,25.2,0000.0,0011.11,0004.35,0003.68
2023-07-13 03:36:00,SystemResetWarning,0831.3,4.99,000.00,028.9,027.6,000.0,037.3,030.6,25.0,0000.0,0010.37,0004.21,0003.56
2023-07-13 03:37:00,SystemResetWarning,0831.4,5.01,000.00,028.9,027.8,000.0,037.3,030.7,25.1,0000.0,0010.17,0004.07,0003.45
2023-07-13 03:38:00,SystemResetWarning,0831.3,5.00,000.00,029.0,027.5,000.0,037.3,030.7,25.4,0000.0,0009.65,0003.91,0003.34
2023-07-13 03:39:00,SystemResetWarning,0831.3,4.99,000.00,029.0,025.7,000.0,037.1,030.5,25.8,0000.0,0009.25,0003.77,0003.23
2023-07-13 03:40:00,SystemResetWarning,0831.3,5.00,000.00,028.9,024.6,000.0,037.0,030.2,26.1,0000.0,0008.93,0003.65,0003.10
2023-07-13 03:41:00,SystemResetWarning,0831.3,5.01,000.00,028.8,024.7,000.0,037.0,030.1,26.2,0000.0,0008.45,0003.52,0002.94
2023-07-13 03:42:00,SystemResetWarning,0831.3,5.01,000.00,028.7,025.0,000.0,037.1,030.0,26.5,0000.0,0006.78,0003.43,0002.79
2023-07-13 03:43:00,SystemResetWarning,0831.3,4.99,000.00,028.7,025.5,000.0,037.1,030.1,26.3,0000.0,0006.26,0003.35,0002.68
2023-07-13 03:44:00,SystemResetWarning,0831.3,5.00,000.00,028.7,026.0,000.0,037.1,030.2,26.5,0000.0,0005.96,0003.29,0002.62
2023-07-13 03:45:00,SystemResetWarning,0831.3,5.00,000.00,028.7,026.5,000.0,037.1,030.3,26.6,0000.0,0005.51,0003.22,0002.58
2023-07-13 03:46:00,SystemResetWarning,0831.3,5.00,000.00,028.8,026.8,000.0,037.2,030.4,26.8,0000.0,0005.44,0003.18,0002.55
2023-07-13 03:47:00,SystemResetWarning,0831.2,5.00,000.00,028.8,027.1,000.0,037.2,030.5,26.7,0000.0,0006.98,0003.18,0002.54
2023-07-13 03:48:00,SystemResetWarning,0831.3,5.00,000.00,028.8,027.4,000.0,037.2,030.6,26.6,0000.0,0007.39,0003.17,0002.52
2023-07-13 03:49:00,SystemResetWarning,0831.3,5.01,000.00,028.9,027.6,000.0,037.2,030.6,26.6,0000.0,0007.57,0003.21,0002.53
2023-07-13 03:50:00,SystemResetWarning,0831.3,5.00,000.00,028.9,027.8,000.0,037.3,030.7,26.2,0000.0,0007.69,0003.25,0002.55
2023-07-13 03:51:00,SystemResetWarning,0831.3,4.98,000.00,029.0,027.8,000.0,037.3,030.7,25.9,0000.0,0008.17,0003.27,0002.61
2023-07-13 03:52:00,SystemResetWarning,0831.3,5.00,000.00,029.0,026.4,000.0,037.2,030.6,25.9,0000.0,0008.44,0003.31,0002.67
2023-07-13 03:53:00,SystemResetWarning,0831.2,5.00,000.00,028.9,024.8,000.0,037.1,030.3,26.0,0000.0,0008.50,0003.35,0002.74
2023-07-13 03:54:00,SystemResetWarning,0831.2,5.01,000.00,028.8,024.6,000.0,037.0,030.1,25.7,0000.0,0008.56,0003.38,0002.81
2023-07-13 03:55:00,SystemResetWarning,0831.2,5.02,000.00,028.7,024.9,000.0,037.0,030.0,25.6,0000.0,0009.51,0003.44,0002.87
2023-07-13 03:56:00,SystemResetWarning,0831.2,4.99,000.00,028.7,025.4,000.0,037.1,030.1,25.8,0000.0,0009.93,0003.49,0002.93
2023-07-13 03:57:00,SystemResetWarning,0831.2,5.00,000.00,028.7,025.8,000.0,037.1,030.2,25.5,0000.0,0010.61,0003.54,0002.99
2023-07-13 03:58:00,SystemResetWarning,0831.1,5.01,000.00,028.7,026.3,000.0,037.1,030.3,25.3,0000.0,0010.07,0003.55,0003.04
2023-07-13 03:59:00,SystemResetWarning,0831.2,5.00,000.00,028.7,026.7,000.0,037.2,030.4,25.3,0000.0,0009.87,0003.56,0003.08
